Minot, ND

5:47 AM CDT on April 24, 2018 (GMT -0500)
Minot International

Weather History for KMOT - January, 2012

Change the Weather History Date:

Sunday, January 22, 2012

  Actual Average Record
Temperature  
Mean Temperature 20 °F 12 °F  
Max Temperature 25 °F 21 °F 54 °F (1942)
Min Temperature 15 °F 4 °F -40 °F (1922)
Degree Days  
Heating Degree Days 45 53  
Month to date heating degree days 975 1166  
Since 1 July heating degree days 3865 4761  
Moisture  
Dew Point 14 °F    
Average Humidity 80    
Maximum Humidity 88    
Minimum Humidity 71    
Precipitation  
Precipitation T in 0.01 in 0.67 in (1982)
Month to date precipitation 0.02 0.38  
Year to date precipitation 0.02 0.38  
Sea Level Pressure  
Sea Level Pressure 29.62 in    
Wind  
Wind Speed 12 mph (WNW)    
Max Wind Speed 26 mph    
Max Gust Speed 32 mph    
Visibility 8 miles    
Events Snow    
T = Trace of Precipitation, MM = Missing Value Source: NWS Daily Summary

Daily Weather History Graph

Daily Weather History Graph

Search for Another Location

Airport or City:

Astronomy

Jan. 22, 2012 Rise Set
Actual Time 8:25 AM CST 5:28 PM CST
Civil Twilight 7:50 AM CST 6:02 PM CST
Nautical Twilight 7:12 AM CST 6:41 PM CST
Astronomical Twilight 6:35 AM CST 7:18 PM CST
Moon 7:43 AM CST (1/22) 5:14 PM CST (1/22)
Length of Visible Light 10h 11m
Length of Day
9h 02m
Waning Crescent, 0% of the Moon is Illuminated
Jan 22
Waning Crescent
Jan 23
New
Jan 30
First Quarter
Feb 7
Full
Feb 14
Last Quarter

Hourly Weather History & Observations

Time (CST) Temp. Windchill Dew Point Humidity Pressure Visibility Wind Dir Wind Speed Gust Speed Precip Events Conditions
12:54 AM 21.0 °F 11.4 °F 16.0 °F 81% 29.39 in 10.0 mi ESE 8.1 mph - N/A   Overcast
1:54 AM 21.9 °F 15.7 °F 17.1 °F 82% 29.41 in 10.0 mi East 4.6 mph - N/A   Overcast
2:54 AM 23.0 °F 15.8 °F 17.1 °F 78% 29.43 in 10.0 mi ESE 5.8 mph - N/A   Overcast
3:54 AM 21.9 °F 14.5 °F 17.1 °F 82% 29.43 in 10.0 mi ESE 5.8 mph - N/A   Mostly Cloudy
4:54 AM 21.2 °F - 17.6 °F 86% 29.37 in 10.0 mi Calm Calm - N/A   Scattered Clouds
5:54 AM 21.0 °F - 17.1 °F 85% 29.46 in 10.0 mi Calm Calm - N/A   Mostly Cloudy
6:54 AM 21.0 °F - 18.0 °F 88% 29.48 in 10.0 mi Calm Calm - N/A   Mostly Cloudy
7:54 AM 21.0 °F 16.2 °F 17.1 °F 85% 29.50 in 10.0 mi SSE 3.5 mph - N/A   Clear
8:54 AM 21.9 °F 14.5 °F 18.0 °F 85% 29.52 in 8.0 mi SW 5.8 mph - N/A   Clear
9:54 AM 25.0 °F 15.5 °F 18.0 °F 75% 29.55 in 10.0 mi West 9.2 mph - N/A   Clear
10:54 AM 25.0 °F 12.2 °F 18.0 °F 75% 29.58 in 10.0 mi WNW 16.1 mph - N/A   Clear
11:54 AM 21.9 °F 6.2 °F 15.1 °F 75% 29.60 in 10.0 mi WNW 21.9 mph 31.1 mph N/A   Clear
12:54 PM 23.0 °F 9.2 °F 15.1 °F 72% 29.60 in 10.0 mi WNW 17.3 mph 27.6 mph N/A   Clear
1:34 PM 21.2 °F 5.6 °F 14.0 °F 74% 29.54 in 10.0 mi West 20.7 mph - N/A   Mostly Cloudy
1:54 PM 21.0 °F 6.6 °F 14.0 °F 74% 29.63 in 9.0 mi WNW 17.3 mph 23.0 mph N/A   Overcast
2:54 PM 19.9 °F 4.8 °F 12.9 °F 74% 29.66 in 8.0 mi WNW 18.4 mph 27.6 mph N/A   Overcast
3:54 PM 19.0 °F 4.0 °F 12.9 °F 77% 29.70 in 5.0 mi WNW 17.3 mph - 0.00 in   Haze
4:54 PM 18.0 °F 1.3 °F 10.9 °F 74% 29.75 in 3.0 mi WNW 20.7 mph 28.8 mph 0.00 in Snow Light Snow
5:54 PM 17.6 °F 1.3 °F 10.4 °F 73% 29.69 in 5.0 mi WNW 19.6 mph - N/A Snow Light Snow
6:14 PM 17.6 °F 1.7 °F 10.4 °F 73% 29.70 in 7.0 mi WNW 18.4 mph - 0.00 in   Overcast
6:54 PM 17.1 °F 2.0 °F 10.9 °F 77% 29.81 in 7.0 mi WNW 16.1 mph 25.3 mph 0.00 in   Overcast
7:54 PM 16.0 °F -0.9 °F 12.0 °F 84% 29.82 in 5.0 mi WNW 19.6 mph - N/A   Overcast
8:54 PM 16.0 °F 0.1 °F 12.0 °F 84% 29.83 in 6.0 mi WNW 17.3 mph 23.0 mph N/A   Overcast
9:54 PM 16.0 °F 1.1 °F 12.0 °F 84% 29.82 in 7.0 mi WNW 15.0 mph 23.0 mph N/A   Overcast
10:54 PM 16.0 °F -0.4 °F 10.0 °F 77% 29.83 in 9.0 mi WNW 18.4 mph 23.0 mph N/A   Overcast
11:14 PM 15.8 °F 0.3 °F 10.4 °F 79% 29.75 in 9.0 mi WNW 16.1 mph - N/A   Overcast
11:54 PM 15.1 °F -0.1 °F 10.0 °F 80% 29.85 in 9.0 mi WNW 15.0 mph 23.0 mph N/A   Overcast